• In Austria
  • List of Countries
  • For 7 days
  • Water Temperature
  • Satellite Maps
  • Weather Map
  • News
  • Weather Widgets
  • user-avatar
    Login

    Hourly Weather Gjirokaster

    Today, 20 October, Saturday

    Time Temperature Precipitation Wind Pressure Humidity
    00:00 +11°C° 0 mm 1 mps 653 mmHg 69%
    01:00 +11°C° 0 mm 1 mps 653 mmHg 68%
    02:00 +10°C° 0 mm 2 mps 653 mmHg 68%
    03:00 +10°C° 0 mm 2 mps 653 mmHg 69%
    04:00 +10°C° 0 mm 2 mps 653 mmHg 69%
    05:00 +10°C° 0 mm 2 mps 653 mmHg 68%
    06:00 +10°C° 0 mm 2 mps 653 mmHg 67%
    07:00 +12°C° 0 mm 2 mps 653 mmHg 66%
    08:00 +14°C° 0 mm 2 mps 654 mmHg 59%
    09:00 +16°C° 0 mm 2 mps 655 mmHg 51%
    10:00 +18°C° 0 mm 2 mps 655 mmHg 44%
    11:00 +18°C° 0 mm 2 mps 655 mmHg 41%
    12:00 +19°C° 0 mm 3 mps 655 mmHg 39%
    13:00 +19°C° 0 mm 4 mps 655 mmHg 37%
    14:00 +18°C° 0 mm 4 mps 655 mmHg 41%
    15:00 +17°C° 0 mm 4 mps 655 mmHg 44%
    16:00 +17°C° 0 mm 4 mps 654 mmHg 48%
    17:00 +14°C° 0 mm 4 mps 654 mmHg 53%
    18:00 +13°C° 0 mm 3 mps 654 mmHg 58%
    19:00 +11°C° 0 mm 3 mps 654 mmHg 64%
    20:00 +11°C° 0 mm 3 mps 654 mmHg 65%
    21:00 +10°C° 0 mm 3 mps 654 mmHg 66%
    22:00 +10°C° 0 mm 3 mps 653 mmHg 68%
    23:00 +9°C° 0 mm 3 mps 653 mmHg 68%

    Tomorrow, 21 October, Sunday

    Time Temperature Precipitation Wind Pressure Humidity
    00:00 +9°C° 0 mm 2 mps 653 mmHg 69%
    01:00 +8°C° 0 mm 2 mps 653 mmHg 69%
    02:00 +8°C° 0 mm 2 mps 653 mmHg 69%
    03:00 +8°C° 0 mm 2 mps 652 mmHg 69%
    04:00 +8°C° 0 mm 2 mps 652 mmHg 69%
    05:00 +8°C° 0 mm 2 mps 652 mmHg 68%
    06:00 +8°C° 0 mm 2 mps 652 mmHg 66%
    07:00 +9°C° 0 mm 2 mps 653 mmHg 65%
    08:00 +10°C° 0 mm 2 mps 653 mmHg 60%
    09:00 +13°C° 0 mm 1 mps 653 mmHg 55%
    10:00 +14°C° 0 mm 1 mps 654 mmHg 51%
    11:00 +14°C° 0.1 mm 1 mps 653 mmHg 52%
    12:00 +15°C° 0.1 mm 1 mps 653 mmHg 53%
    13:00 +15°C° 0.1 mm 1 mps 653 mmHg 54%
    14:00 +14°C° 0.3 mm 1 mps 653 mmHg 57%
    15:00 +14°C° 0.3 mm 1 mps 652 mmHg 60%
    16:00 +13°C° 0.3 mm 1 mps 652 mmHg 63%
    17:00 +12°C° 0.2 mm 1 mps 652 mmHg 67%
    18:00 +11°C° 0.2 mm 1 mps 652 mmHg 71%
    19:00 +10°C° 0.2 mm 1 mps 652 mmHg 76%
    20:00 +10°C° 0.1 mm 1 mps 652 mmHg 77%
    21:00 +9°C° 0.1 mm 1 mps 652 mmHg 77%
    22:00 +9°C° 0.1 mm 1 mps 652 mmHg 78%
    23:00 +8°C° 0 mm 2 mps 652 mmHg 79%

    Day after tomorrow, 22 October, Monday

    Time Temperature Precipitation Wind Pressure Humidity
    00:00 +8°C° 0 mm 2 mps 651 mmHg 80%
    01:00 +7°C° 0 mm 3 mps 651 mmHg 81%
    02:00 +7°C° 0.1 mm 3 mps 651 mmHg 81%
    03:00 +7°C° 0.1 mm 3 mps 651 mmHg 82%
    04:00 +7°C° 0.1 mm 3 mps 651 mmHg 82%
    05:00 +7°C° 0.4 mm 3 mps 651 mmHg 81%
    06:00 +8°C° 0.4 mm 3 mps 651 mmHg 81%
    07:00 +7°C° 0.4 mm 4 mps 651 mmHg 80%
    08:00 +7°C° 1.3 mm 4 mps 651 mmHg 80%
    09:00 +7°C° 1.3 mm 4 mps 651 mmHg 81%
    10:00 +7°C° 1.3 mm 4 mps 651 mmHg 81%
    11:00 +7°C° 0.9 mm 4 mps 651 mmHg 79%
    12:00 +8°C° 0.9 mm 4 mps 651 mmHg 77%
    13:00 +8°C° 0.9 mm 4 mps 650 mmHg 75%
    14:00 +7°C° 2 mm 4 mps 650 mmHg 79%
    15:00 +7°C° 2 mm 4 mps 650 mmHg 82%
    16:00 +7°C° 2 mm 4 mps 649 mmHg 86%
    17:00 +6°C° 1.7 mm 4 mps 649 mmHg 86%
    18:00 +6°C° 1.7 mm 4 mps 649 mmHg 87%
    19:00 +6°C° 1.7 mm 4 mps 649 mmHg 88%
    20:00 +6°C° 2.2 mm 4 mps 649 mmHg 88%
    21:00 +6°C° 2.2 mm 4 mps 649 mmHg 89%
    22:00 +5°C° 2.2 mm 4 mps 649 mmHg 89%
    23:00 +5°C° 4 mm 4 mps 648 mmHg 90%

    23 October, Tuesday

    Time Temperature Precipitation Wind Pressure Humidity
    00:00 +5°C° 4 mm 4 mps 648 mmHg 90%
    01:00 +5°C° 4 mm 4 mps 648 mmHg 91%
    02:00 +5°C° 3.2 mm 4 mps 648 mmHg 90%
    03:00 +5°C° 3.2 mm 4 mps 647 mmHg 89%
    04:00 +5°C° 3.2 mm 4 mps 647 mmHg 89%
    05:00 +5°C° 1.6 mm 4 mps 647 mmHg 88%
    06:00 +5°C° 1.6 mm 4 mps 647 mmHg 88%
    07:00 +6°C° 1.6 mm 4 mps 647 mmHg 88%
    08:00 +6°C° 1.8 mm 4 mps 647 mmHg 87%
    09:00 +6°C° 1.8 mm 4 mps 648 mmHg 87%
    10:00 +6°C° 1.8 mm 4 mps 648 mmHg 86%
    11:00 +7°C° 0.6 mm 4 mps 648 mmHg 83%
    12:00 +7°C° 0.6 mm 4 mps 648 mmHg 81%
    13:00 +9°C° 0.6 mm 3 mps 648 mmHg 78%
    14:00 +9°C° 0.3 mm 3 mps 648 mmHg 79%
    15:00 +8°C° 0.3 mm 3 mps 648 mmHg 79%
    16:00 +8°C° 0.3 mm 3 mps 648 mmHg 80%
    17:00 +8°C° 0.1 mm 3 mps 648 mmHg 81%
    18:00 +7°C° 0.1 mm 3 mps 648 mmHg 83%
    19:00 +7°C° 0.1 mm 3 mps 648 mmHg 84%
    20:00 +7°C° 0.2 mm 3 mps 648 mmHg 84%
    21:00 +7°C° 0.2 mm 3 mps 648 mmHg 85%
    22:00 +7°C° 0.2 mm 3 mps 648 mmHg 85%
    23:00 +5°C° 0.4 mm 3 mps 647 mmHg 85%

    24 October, Wednesday

    Time Temperature Precipitation Wind Pressure Humidity
    00:00 +5°C° 0.4 mm 3 mps 647 mmHg 86%
    01:00 +5°C° 0.4 mm 3 mps 646 mmHg 87%
    02:00 +5°C° 0.3 mm 3 mps 646 mmHg 87%
    03:00 +5°C° 0.3 mm 3 mps 646 mmHg 87%
    04:00 +6°C° 0.3 mm 2 mps 646 mmHg 87%
    05:00 +6°C° 0.2 mm 2 mps 646 mmHg 87%
    06:00 +6°C° 0.2 mm 2 mps 646 mmHg 86%
    07:00 +5°C° 0.2 mm 3 mps 646 mmHg 85%
    08:00 +8°C° 0 mm 3 mps 646 mmHg 77%
    09:00 +9°C° 0 mm 3 mps 646 mmHg 70%
    10:00 +10°C° 0 mm 3 mps 646 mmHg 62%
    11:00 +11°C° 0 mm 4 mps 646 mmHg 59%
    12:00 +12°C° 0 mm 4 mps 646 mmHg 56%
    13:00 +13°C° 0 mm 5 mps 646 mmHg 54%
    14:00 +12°C° 0 mm 5 mps 646 mmHg 56%
    15:00 +10°C° 0 mm 5 mps 646 mmHg 59%
    16:00 +10°C° 0 mm 5 mps 645 mmHg 62%
    17:00 +9°C° 0 mm 5 mps 645 mmHg 65%
    18:00 +7°C° 0 mm 5 mps 646 mmHg 69%
    19:00 +6°C° 0 mm 5 mps 646 mmHg 72%
    20:00 +6°C° 0 mm 5 mps 646 mmHg 71%
    21:00 +5°C° 0 mm 4 mps 646 mmHg 71%
    22:00 +5°C° 0 mm 4 mps 647 mmHg 71%
    23:00 +5°C° 0 mm 5 mps 647 mmHg 71%

    25 October, Thursday

    Time Temperature Precipitation Wind Pressure Humidity
    00:00 +3°C° 0 mm 5 mps 647 mmHg 71%
    01:00 +3°C° 0 mm 5 mps 647 mmHg 71%
    02:00 +3°C° 0 mm 5 mps 648 mmHg 72%
    03:00 +2°C° 0 mm 5 mps 648 mmHg 72%
    04:00 +2°C° 0 mm 5 mps 648 mmHg 73%
    05:00 +2°C° 0 mm 5 mps 648 mmHg 73%
    06:00 +2°C° 0 mm 5 mps 649 mmHg 73%
    07:00 +2°C° 0 mm 5 mps 649 mmHg 72%
    08:00 +5°C° 0 mm 5 mps 650 mmHg 64%
    09:00 +6°C° 0 mm 5 mps 651 mmHg 55%
    10:00 +8°C° 0 mm 5 mps 651 mmHg 46%
    11:00 +8°C° 0 mm 5 mps 651 mmHg 45%
    12:00 +9°C° 0 mm 6 mps 651 mmHg 44%
    13:00 +9°C° 0 mm 6 mps 651 mmHg 43%
    14:00 +9°C° 0 mm 6 mps 651 mmHg 47%
    15:00 +8°C° 0 mm 5 mps 651 mmHg 50%
    16:00 +7°C° 0 mm 5 mps 651 mmHg 54%
    17:00 +6°C° 0 mm 4 mps 651 mmHg 57%
    18:00 +5°C° 0 mm 4 mps 652 mmHg 61%
    19:00 +4°C° 0 mm 3 mps 652 mmHg 64%
    20:00 +4°C° 0 mm 3 mps 652 mmHg 64%
    21:00 +3°C° 0 mm 3 mps 652 mmHg 64%
    22:00 +3°C° 0 mm 3 mps 653 mmHg 64%
    23:00 +4°C° 0 mm 2 mps 653 mmHg 63%
    Show more